Location: Newark
(34.4697°S, 57.8467°W)
Time: 06:36:09
(UTC+00:00)

N. Korean satellite - Pass Details

Date: 23 July 2019
Orbit: 457 x 507 km, 97.2° (Epoch: 23 August)

Event Time Altitude Azimuth Distance (km) Brightness Sun altitude
Rises 22:55:23 0° 196° (SSW) 2,522 10.3 -22.7°
Reaches altitude 10° 22:59:09 10° 238° (WSW) 1,626 9.8 -23.4°
Maximum altitude 22:59:45 10° 248° (WSW) 1,601 10.0 -23.6°
Drops below altitude 10° 23:00:21 10° 258° (WSW) 1,621 10.1 -23.7°
Sets 23:04:04 0° 300° (WNW) 2,480 11.3 -24.4°
